Clinton-Sherman, OK

1:00 AM CDT on October 19, 2017 (GMT -0500)
Clinton-Sherman

Weather History for KCSM - October, 2014

Change the Weather History Date:

Monday, October 13, 2014

  Actual Average Record
Temperature  
Mean Temperature 58 °F -  
Max Temperature 66 °F 71 °F 91 °F (2015)
Min Temperature 51 °F 49 °F 42 °F (2006)
Degree Days  
Heating Degree Days 6    
Growing Degree Days 8 (Base 50)    
Moisture  
Dew Point 47 °F    
Average Humidity 73    
Maximum Humidity 93    
Minimum Humidity 36    
Precipitation  
Precipitation 1.04 in - - ()
Sea Level Pressure  
Sea Level Pressure 29.76 in    
Wind  
Wind Speed 22 mph (NW)    
Max Wind Speed 34 mph    
Max Gust Speed 48 mph    
Visibility 8 miles    
Events Rain    
Averages and records for this station are not official NWS values.
T = Trace of Precipitation, MM = Missing Value Source: NWS Daily Summary

Daily Weather History Graph

Daily Weather History Graph

Search for Another Location

Airport or City:

Trip Planner

Search our weather history database for the weather conditions in past years. The results will help you decide how hot, cold, wet, or windy it might be!

Date:

Astronomy

Oct. 13, 2014 Rise Set
Actual Time 7:41 AM CDT 7:04 PM CDT
Civil Twilight 7:15 AM CDT 7:29 PM CDT
Nautical Twilight 6:46 AM CDT 7:59 PM CDT
Astronomical Twilight 6:16 AM CDT 8:28 PM CDT
Moon 11:23 PM CDT (10/13) 12:50 PM CDT (10/13)
Length of Visible Light 12h 13m
Length of Day
11h 22m
Waning Gibbous, 70% of the Moon is Illuminated
Oct 13
Waning Gibbous
Oct 15
Last Quarter
Oct 23
New
Oct 30
First Quarter
Nov 6
Full

Hourly Weather History & Observations

Time (CDT) Temp. Dew Point Humidity Pressure Visibility Wind Dir Wind Speed Gust Speed Precip Events Conditions
12:51 AM 60.8 °F 55.4 °F 82% 29.65 in 10.0 mi West 12.7 mph - N/A   Mostly Cloudy
12:53 AM 60.1 °F 55.0 °F 83% 29.60 in 10.0 mi WNW 11.5 mph - N/A   Mostly Cloudy
1:53 AM 60.1 °F 54.0 °F 80% 29.57 in 10.0 mi WNW 12.7 mph - N/A   Overcast
2:53 AM 60.1 °F 55.0 °F 83% 29.56 in 10.0 mi NW 16.1 mph 25.3 mph N/A   Overcast
3:53 AM 59.0 °F 55.0 °F 87% 29.56 in 10.0 mi NNW 23.0 mph - 0.00 in   Overcast
4:05 AM 59.0 °F 55.0 °F 87% 29.61 in 10.0 mi NNW 19.6 mph - N/A   Overcast
4:25 AM 59.0 °F 54.0 °F 83% 29.61 in 8.0 mi NW 19.6 mph 28.8 mph N/A   Overcast
4:43 AM 57.0 °F 55.0 °F 93% 29.61 in 5.0 mi NW 25.3 mph 29.9 mph 0.00 in Rain Light Rain
4:53 AM 55.9 °F 53.1 °F 90% 29.56 in 6.0 mi NW 29.9 mph 36.8 mph 0.00 in Rain Light Rain
5:29 AM 55.0 °F 51.1 °F 86% 29.63 in 1.8 mi NNW 31.1 mph 40.3 mph 0.20 in Rain Heavy Rain
5:48 AM 53.6 °F 50.0 °F 88% 29.66 in 2.5 mi NW 25.3 mph 40.3 mph 0.37 in Rain Heavy Rain
5:53 AM 54.0 °F 50.0 °F 86% 29.61 in 3.0 mi NW 28.8 mph 35.7 mph 0.39 in Rain Heavy Rain
6:02 AM 53.1 °F 50.0 °F 89% 29.66 in 3.0 mi NW 31.1 mph 39.1 mph 0.06 in Rain Heavy Rain
6:09 AM 53.1 °F 50.0 °F 89% 29.67 in 4.0 mi NW 26.5 mph 39.1 mph 0.09 in Rain Heavy Rain
6:53 AM 52.0 °F 48.9 °F 89% 29.66 in 10.0 mi NNW 24.2 mph 41.4 mph 0.12 in Rain Light Rain
7:53 AM 51.1 °F 46.9 °F 86% 29.69 in 5.0 mi NNW 34.5 mph 43.7 mph 0.09 in Rain Rain
8:42 AM 51.1 °F 46.9 °F 86% 29.75 in 2.0 mi NNW 31.1 mph 41.4 mph 0.15 in Rain Heavy Rain
8:53 AM 51.1 °F 46.9 °F 86% 29.72 in 3.0 mi NNW 32.2 mph 43.7 mph 0.20 in Rain Rain
9:15 AM 51.1 °F 46.9 °F 86% 29.77 in 4.0 mi NNW 28.8 mph 40.3 mph 0.08 in Rain Rain
9:53 AM 51.1 °F 46.9 °F 86% 29.77 in 5.0 mi NNW 31.1 mph 40.3 mph 0.15 in Rain Rain
10:03 AM 51.1 °F 46.0 °F 83% 29.80 in 5.0 mi NNW 27.6 mph 40.3 mph 0.02 in Rain Rain
10:25 AM 51.1 °F 46.0 °F 83% 29.81 in 6.0 mi NNW 27.6 mph 42.6 mph 0.07 in Rain Light Rain
10:53 AM 51.1 °F 46.0 °F 83% 29.80 in 10.0 mi NNW 29.9 mph 36.8 mph 0.08 in Rain Light Rain
11:53 AM 54.0 °F 46.0 °F 75% 29.82 in 10.0 mi NNW 32.2 mph 43.7 mph 0.01 in   Overcast
12:53 PM 57.9 °F 46.0 °F 65% 29.85 in 10.0 mi NNW 25.3 mph 42.6 mph N/A   Overcast
1:53 PM 61.0 °F 45.0 °F 56% 29.85 in 10.0 mi NNW 26.5 mph 48.3 mph N/A   Mostly Cloudy
2:53 PM 63.0 °F 42.1 °F 46% 29.85 in 10.0 mi NNW 33.4 mph 47.2 mph N/A   Overcast
3:53 PM 64.9 °F 41.0 °F 42% 29.85 in 10.0 mi NNW 34.5 mph 42.6 mph N/A   Mostly Cloudy
4:53 PM 66.0 °F 39.0 °F 37% 29.87 in 10.0 mi NNW 27.6 mph 39.1 mph N/A   Clear
5:53 PM 64.9 °F 37.0 °F 36% 29.89 in 10.0 mi NNW 29.9 mph 38.0 mph N/A   Clear
6:53 PM 62.1 °F 37.9 °F 41% 29.92 in 10.0 mi NNW 17.3 mph - N/A   Clear
7:53 PM 59.0 °F 39.0 °F 48% 29.96 in 10.0 mi NW 13.8 mph - N/A   Clear
8:53 PM 57.9 °F 39.0 °F 49% 29.97 in 10.0 mi NW 12.7 mph - N/A   Clear
9:53 PM 57.0 °F 39.0 °F 51% 30.00 in 10.0 mi WNW 13.8 mph - N/A   Clear
10:53 PM 55.9 °F 39.0 °F 53% 30.01 in 10.0 mi NW 13.8 mph - N/A   Clear
11:53 PM 55.0 °F 37.9 °F 53% 30.02 in 10.0 mi NW 13.8 mph - N/A   Clear